This is the latest recevied weather packets stored in our database for station/object CRYC. If no packets are shown the sender has not sent any weather packets the latest 10 day(s).
| Time | Temp. | Humidity | Pressure | Rain* | Wind** | Luminosity | Snow |
|---|---|---|---|---|---|---|---|
| 1777725793 | 11.67° C | - | - | 0 mm | 1.79 m/s, 343° | - | - |
| 1777725188 | 11.11° C | - | - | 0 mm | 1.79 m/s, 352° | - | - |
| 1777724577 | 11.11° C | - | - | 0 mm | 1.34 m/s, 321° | - | - |
| 1777723974 | 11.11° C | - | - | 0 mm | 1.79 m/s, 339° | - | - |
| 1777723370 | 11.67° C | - | - | 0 mm | 1.34 m/s, 329° | - | - |
| 1777722765 | 11.67° C | - | - | 0 mm | 1.79 m/s, 37° | - | - |
| 1777722156 | 11.67° C | - | - | 0 mm | 1.79 m/s, 25° | - | - |
| 1777721555 | 11.11° C | - | - | 0 mm | 2.24 m/s, 322° | - | - |
| 1777720948 | 11.11° C | - | - | 0 mm | 0.45 m/s, 304° | - | - |
| 1777720343 | 10.56° C | - | - | 0 mm | 0 m/s | - | - |
| 1777719740 | 10.56° C | - | - | 0 mm | 1.34 m/s, 266° | - | - |
| 1777719136 | 10° C | - | - | 0 mm | 1.79 m/s, 15° | - | - |
| 1777718532 | 10° C | - | - | 0 mm | 1.79 m/s, 270° | - | - |
| 1777717929 | 10° C | - | - | 0 mm | 2.68 m/s, 24° | - | - |
| 1777717324 | 10.56° C | - | - | 0 mm | 1.79 m/s, 349° | - | - |
| 1777716721 | 10° C | - | - | 0 mm | 1.34 m/s, 82° | - | - |
| 1777716118 | 10° C | - | - | 0 mm | 0.45 m/s, 349° | - | - |
| 1777714910 | 10° C | - | - | 0 mm | 0.45 m/s, 10° | - | - |
| 1777714302 | 9.44° C | - | - | 0 mm | 0 m/s | - | - |
| 1777713697 | 9.44° C | - | - | 0 mm | 0 m/s | - | - |
| 1777713094 | 10° C | - | - | 0 mm | 0 m/s | - | - |
| 1777712487 | 10° C | - | - | 0 mm | 0 m/s | - | - |
| 1777711882 | 10.56° C | - | - | 0 mm | 0 m/s | - | - |
| 1777711279 | 10.56° C | - | - | 0 mm | 0 m/s | - | - |
| 1777710676 | 10.56° C | - | - | 0 mm | 0.45 m/s, 347° | - | - |
* Rain latest hour (hover to see other rain measurements)
** Current wind speed in m/s (hover to see current wind gust speed)